Location: Chisholm
(54.9102°N, 114.1701°W)
Time: 19:06:48
(UTC+00:00)

ISS - Pass Details

Date: 02 December 2021
Orbit: 413 x 422 km, 51.6° (Epoch: 18 January)

Event Time Altitude Azimuth Distance (km) Brightness Sun altitude
Rises 01:16:51 0° 270° (W) 2,386 1.6 -16.5°
Reaches altitude 10° 01:19:01 10° 263° (W) 1,518 0.4 -16.8°
Maximum altitude 01:22:15 41° 192° (SSW) 627 -2.7 -17.3°
Enters shadow 01:23:37 27° 140° (SE) 853 -2.5 -17.5°
